Zurück zum Katalog

STARLINK-35511

AktivKommunikationVLEO
NORAD 66344·PAYLOAD·🇺🇸 United States

Gestartet Nov 6, 2025 von Cape Canaveral Space Force Station

Loading…

Nächste Überflüge (nächste 24 Stunden)

TLE

AktuellSource: CelesTrak SupGP

Epoche: Sep 15, 2026, 02:41 UTC

1 66344C 25253AB  26258.11229167 -.00026567  00000+0 -96241-3 0  2582
2 66344  43.0017 222.3728 0001190 264.1518 270.2237 15.27586456    17

Verfolge STARLINK-35511 in Echtzeit mit AllMySat

Download on the App Store